Chongqing, China

5:21 PM CST on November 18, 2019 (GMT +0800)
Jiangbei

Weather History for ZUCK - September, 2019

Change the Weather History Date:

Friday, September 6, 2019

  Actual Average (WUND) Record (WUND)
Temperature  
Mean Temperature 80 °F -  
Max Temperature 88 °F - - (-1)
Min Temperature 73 °F - - (-1)
Cooling Degree Days 16    
Growing Degree Days 30 (Base 50)    
Moisture  
Dew Point 72 °F    
Average Humidity 78    
Maximum Humidity 100    
Minimum Humidity 47    
Precipitation  
Precipitation 0.03 in - - ()
Sea Level Pressure  
Sea Level Pressure 29.69 in    
Wind  
Wind Speed 3 mph ()    
Max Wind Speed 11 mph    
Max Gust Speed -    
Visibility 3.3 miles    
Events Fog , Rain    
Averages and records for this station are not official NWS values.
T = Trace of Precipitation, MM = Missing Value Source: Averaged Metar Reports

Daily Weather History Graph

Daily Weather History Graph

Search for Another Location

Airport or City:

Astronomy

Sep. 06, 2019 Rise Set
Actual Time 6:32 AM CST 7:10 PM CST
Civil Twilight 6:08 AM CST 7:34 PM CST
Nautical Twilight 5:40 AM CST 8:03 PM CST
Astronomical Twilight 5:11 AM CST 8:31 PM CST
Moon 1:36 PM CST (9/6) No Moon Set
Length of Visible Light 13h 25m
Length of Day
12h 37m
Waxing Crescent, 50% of the Moon is Illuminated
Sep 6
Waxing Crescent
Sep 14
Full
Sep 22
Last Quarter
Sep 29
New
Oct 6
First Quarter

Hourly Weather History & Observations

Time (CST) Temp. Heat Index Dew Point Humidity Pressure Visibility Wind Dir Wind Speed Gust Speed Precip Events Conditions
12:00 AM 77.0 °F - 69.8 °F 78% 29.77 in - West 6.7 mph - N/A   Clear
2:00 AM 78 °F - 71 °F 73% 29.68 in 5 mi WSW 2.2 mph - - Rain Light Rain
2:00 AM 75.2 °F - 69.8 °F 83% 29.74 in - Variable 2.2 mph - N/A   Clear
3:00 AM 75.2 °F - 71.6 °F 89% 29.71 in - SSW 4.5 mph - N/A   Clear
4:00 AM 75.2 °F - 71.6 °F 89% 29.71 in 5.6 mi WSW 2.2 mph - N/A   Unknown
5:00 AM 75 °F - 72 °F 87% 29.66 in 3 mi SSE 2.2 mph - - Rain Light Rain
6:00 AM 73.4 °F - 73.4 °F 100% 29.71 in 1.6 mi Variable 2.2 mph - N/A Rain Light Rain
7:00 AM 73.4 °F - 73.4 °F 100% 29.74 in 1.1 mi Variable 2.2 mph - N/A Fog Scattered Clouds
8:00 AM 76 °F - 73 °F 86% 29.69 in - Calm Calm - -   Mist
8:00 AM 75.2 °F - 73.4 °F 94% 29.77 in 1.0 mi Variable 2.2 mph - N/A Fog Scattered Clouds
9:00 AM 75.2 °F - 73.4 °F 94% 29.74 in 1.7 mi Variable 2.2 mph - N/A   Scattered Clouds
10:00 AM 78.8 °F - 73.4 °F 83% 29.77 in 2.5 mi Variable 2.2 mph - N/A   Partly Cloudy
11:00 AM 81 °F - 72 °F 68% 29.69 in 2 mi NNW 4.5 mph - -   Mist
11:00 AM 78.8 °F - 73.4 °F 83% 29.74 in 2.5 mi Variable 2.2 mph - N/A Rain Light Rain
12:00 PM 82.4 °F 88.2 °F 73.4 °F 74% 29.74 in 3.1 mi Variable 2.2 mph - N/A   Scattered Clouds
2:00 PM 86.0 °F 93.4 °F 73.4 °F 66% 29.68 in 3.7 mi Variable 4.5 mph - N/A   Partly Cloudy
3:00 PM 86.0 °F 91.8 °F 71.6 °F 62% 29.65 in 5.0 mi Variable 4.5 mph - N/A   Partly Cloudy
4:00 PM 86.0 °F 93.4 °F 73.4 °F 66% 29.65 in 5.0 mi Variable 2.2 mph - N/A   Scattered Clouds
5:00 PM 88 °F - 71 °F 47% 29.55 in 4 mi NW 2.2 mph - -   Mist
5:00 PM 86.0 °F 91.8 °F 71.6 °F 62% 29.62 in 5.6 mi Calm Calm - N/A   Unknown
6:00 PM 84.2 °F 90.9 °F 73.4 °F 70% 29.62 in - NNE 8.9 mph - N/A   Clear
7:00 PM 82.4 °F 88.2 °F 73.4 °F 74% 29.65 in - NNE 8.9 mph - N/A   Clear
8:00 PM 83 °F - 73 °F 66% 29.58 in 4 mi NNW 4.5 mph - -   Mist
8:00 PM 80.6 °F 84.6 °F 71.6 °F 74% 29.65 in - North 11.2 mph - N/A   Clear
9:00 PM 80.6 °F 84.6 °F 71.6 °F 74% 29.68 in - North 8.9 mph - N/A   Clear
10:00 PM 78.8 °F - 71.6 °F 78% 29.71 in - North 4.5 mph - N/A   Clear
11:00 PM 81 °F - 73 °F 71% 29.63 in 3 mi NW 4.5 mph - -   Mist
11:00 PM 78.8 °F - 73.4 °F 83% 29.71 in - WNW 2.2 mph - N/A   Clear